• In Hungary
  • List of Countries
  • For 7 days
  • Water Temperature
  • Satellite Maps
  • Weather Map
  • News
  • Weather Widgets
  • user-avatar
    Login

    Hourly Weather Horobtsi

    Today, 19 October, Thursday

    Time Temperature Precipitation Wind Pressure Humidity
    00:00 +13°C° 0 mm 3 mps 754 mmHg 85%
    01:00 +12°C° 0 mm 3 mps 753 mmHg 87%
    02:00 +12°C° 0 mm 3 mps 753 mmHg 89%
    03:00 +12°C° 0 mm 3 mps 753 mmHg 90%
    04:00 +11°C° 0 mm 3 mps 753 mmHg 91%
    05:00 +11°C° 0 mm 3 mps 753 mmHg 92%
    06:00 +12°C° 0 mm 3 mps 753 mmHg 89%
    07:00 +13°C° 0 mm 2 mps 753 mmHg 87%
    08:00 +14°C° 0 mm 2 mps 753 mmHg 84%
    09:00 +16°C° 0 mm 2 mps 753 mmHg 76%
    10:00 +17°C° 0 mm 2 mps 753 mmHg 67%
    11:00 +19°C° 0 mm 2 mps 753 mmHg 59%
    12:00 +20°C° 0 mm 2 mps 753 mmHg 56%
    13:00 +20°C° 0 mm 2 mps 753 mmHg 53%
    14:00 +21°C° 0 mm 2 mps 753 mmHg 50%
    15:00 +20°C° 0 mm 2 mps 753 mmHg 54%
    16:00 +20°C° 0 mm 1 mps 753 mmHg 59%
    17:00 +18°C° 0 mm 1 mps 752 mmHg 63%
    18:00 +18°C° 0 mm 1 mps 753 mmHg 65%
    19:00 +18°C° 0 mm 1 mps 753 mmHg 66%
    20:00 +15°C° 0 mm 0 mps 753 mmHg 68%
    21:00 +16°C° 0 mm 1 mps 753 mmHg 69%
    22:00 +16°C° 0 mm 1 mps 753 mmHg 69%
    23:00 +16°C° 0 mm 1 mps 753 mmHg 70%

    Tomorrow, 20 October, Friday

    Time Temperature Precipitation Wind Pressure Humidity
    00:00 +15°C° 0 mm 1 mps 753 mmHg 72%
    01:00 +15°C° 0 mm 1 mps 753 mmHg 75%
    02:00 +14°C° 0 mm 2 mps 753 mmHg 77%
    03:00 +14°C° 0 mm 2 mps 753 mmHg 79%
    04:00 +13°C° 0 mm 2 mps 753 mmHg 81%
    05:00 +13°C° 0 mm 2 mps 752 mmHg 82%
    06:00 +14°C° 0 mm 2 mps 753 mmHg 80%
    07:00 +14°C° 0 mm 2 mps 753 mmHg 78%
    08:00 +15°C° 0 mm 2 mps 753 mmHg 75%
    09:00 +16°C° 0 mm 2 mps 753 mmHg 70%
    10:00 +17°C° 0 mm 2 mps 753 mmHg 64%
    11:00 +19°C° 0 mm 2 mps 753 mmHg 58%
    12:00 +19°C° 0 mm 2 mps 753 mmHg 56%
    13:00 +20°C° 0 mm 2 mps 753 mmHg 54%
    14:00 +21°C° 0 mm 2 mps 753 mmHg 52%
    15:00 +19°C° 0 mm 2 mps 753 mmHg 57%
    16:00 +18°C° 0 mm 3 mps 752 mmHg 62%
    17:00 +17°C° 0 mm 3 mps 752 mmHg 67%
    18:00 +16°C° 0 mm 3 mps 753 mmHg 71%
    19:00 +13°C° 0 mm 4 mps 753 mmHg 75%
    20:00 +12°C° 0 mm 4 mps 753 mmHg 79%
    21:00 +12°C° 0 mm 4 mps 753 mmHg 79%
    22:00 +11°C° 0 mm 3 mps 753 mmHg 80%
    23:00 +11°C° 0 mm 3 mps 753 mmHg 81%

    Day after tomorrow, 21 October, Saturday

    Time Temperature Precipitation Wind Pressure Humidity
    00:00 +10°C° 0 mm 3 mps 754 mmHg 79%
    01:00 +10°C° 0 mm 3 mps 754 mmHg 77%
    02:00 +10°C° 0 mm 3 mps 754 mmHg 76%
    03:00 +9°C° 0 mm 3 mps 754 mmHg 75%
    04:00 +9°C° 0 mm 3 mps 754 mmHg 74%
    05:00 +8°C° 0 mm 3 mps 754 mmHg 73%
    06:00 +8°C° 0 mm 3 mps 754 mmHg 70%
    07:00 +8°C° 0 mm 4 mps 755 mmHg 66%
    08:00 +8°C° 0 mm 4 mps 755 mmHg 63%
    09:00 +10°C° 0 mm 4 mps 755 mmHg 57%
    10:00 +11°C° 0 mm 4 mps 756 mmHg 51%
    11:00 +12°C° 0 mm 4 mps 756 mmHg 44%
    12:00 +12°C° 0 mm 4 mps 756 mmHg 41%
    13:00 +12°C° 0 mm 4 mps 756 mmHg 39%
    14:00 +13°C° 0 mm 4 mps 755 mmHg 36%
    15:00 +11°C° 0 mm 3 mps 756 mmHg 39%
    16:00 +10°C° 0 mm 3 mps 756 mmHg 43%
    17:00 +9°C° 0 mm 3 mps 756 mmHg 47%
    18:00 +8°C° 0 mm 3 mps 756 mmHg 49%
    19:00 +8°C° 0 mm 3 mps 756 mmHg 52%
    20:00 +7°C° 0 mm 3 mps 757 mmHg 55%
    21:00 +5°C° 0 mm 3 mps 757 mmHg 57%
    22:00 +6°C° 0 mm 2 mps 757 mmHg 59%
    23:00 +5°C° 0 mm 2 mps 757 mmHg 60%

    22 October, Sunday

    Time Temperature Precipitation Wind Pressure Humidity
    00:00 +5°C° 0 mm 2 mps 757 mmHg 62%
    01:00 +4°C° 0 mm 2 mps 758 mmHg 63%
    02:00 +4°C° 0 mm 2 mps 758 mmHg 64%
    03:00 +4°C° 0 mm 2 mps 758 mmHg 66%
    04:00 +3°C° 0 mm 2 mps 758 mmHg 68%
    05:00 +3°C° 0 mm 2 mps 758 mmHg 69%
    06:00 +3°C° 0 mm 2 mps 758 mmHg 67%
    07:00 +4°C° 0 mm 2 mps 758 mmHg 65%
    08:00 +6°C° 0 mm 1 mps 759 mmHg 63%
    09:00 +7°C° 0 mm 1 mps 759 mmHg 58%
    10:00 +8°C° 0 mm 1 mps 759 mmHg 52%
    11:00 +9°C° 0 mm 1 mps 759 mmHg 46%
    12:00 +10°C° 0 mm 1 mps 758 mmHg 43%
    13:00 +10°C° 0 mm 1 mps 758 mmHg 40%
    14:00 +11°C° 0 mm 1 mps 758 mmHg 38%
    15:00 +10°C° 0 mm 1 mps 757 mmHg 40%
    16:00 +9°C° 0 mm 1 mps 757 mmHg 43%
    17:00 +8°C° 0 mm 1 mps 757 mmHg 46%
    18:00 +7°C° 0 mm 1 mps 758 mmHg 48%
    19:00 +7°C° 0 mm 1 mps 758 mmHg 49%
    20:00 +6°C° 0 mm 1 mps 758 mmHg 51%
    21:00 +6°C° 0 mm 1 mps 758 mmHg 53%
    22:00 +5°C° 0 mm 1 mps 758 mmHg 54%
    23:00 +5°C° 0 mm 1 mps 758 mmHg 56%

    23 October, Monday

    Time Temperature Precipitation Wind Pressure Humidity
    00:00 +4°C° 0 mm 1 mps 758 mmHg 57%
    01:00 +4°C° 0 mm 1 mps 758 mmHg 58%
    02:00 +4°C° 0 mm 1 mps 758 mmHg 59%
    03:00 +4°C° 0 mm 1 mps 758 mmHg 60%
    04:00 +3°C° 0 mm 1 mps 757 mmHg 60%
    05:00 +3°C° 0 mm 1 mps 757 mmHg 61%
    06:00 +3°C° 0 mm 2 mps 758 mmHg 59%
    07:00 +3°C° 0 mm 2 mps 758 mmHg 56%
    08:00 +4°C° 0 mm 2 mps 758 mmHg 54%
    09:00 +6°C° 0 mm 2 mps 758 mmHg 49%
    10:00 +7°C° 0 mm 2 mps 758 mmHg 43%
    11:00 +9°C° 0 mm 3 mps 758 mmHg 38%
    12:00 +9°C° 0 mm 3 mps 758 mmHg 36%
    13:00 +10°C° 0 mm 2 mps 757 mmHg 34%
    14:00 +10°C° 0 mm 2 mps 757 mmHg 32%
    15:00 +9°C° 0 mm 2 mps 757 mmHg 35%
    16:00 +8°C° 0 mm 2 mps 757 mmHg 38%
    17:00 +7°C° 0 mm 2 mps 757 mmHg 40%
    18:00 +7°C° 0 mm 2 mps 758 mmHg 42%
    19:00 +5°C° 0 mm 3 mps 758 mmHg 43%
    20:00 +5°C° 0 mm 3 mps 758 mmHg 45%
    21:00 +4°C° 0 mm 3 mps 759 mmHg 46%
    22:00 +4°C° 0 mm 3 mps 759 mmHg 48%
    23:00 +3°C° 0 mm 3 mps 759 mmHg 49%

    24 October, Tuesday

    Time Temperature Precipitation Wind Pressure Humidity
    00:00 +3°C° 0 mm 3 mps 759 mmHg 51%
    01:00 +3°C° 0 mm 3 mps 759 mmHg 52%
    02:00 +2°C° 0 mm 3 mps 759 mmHg 54%
    03:00 +2°C° 0 mm 3 mps 759 mmHg 55%
    04:00 +2°C° 0 mm 3 mps 760 mmHg 57%
    05:00 +1°C° 0 mm 3 mps 760 mmHg 58%
    06:00 +2°C° 0 mm 3 mps 760 mmHg 56%
    07:00 +3°C° 0 mm 4 mps 760 mmHg 53%
    08:00 +3°C° 0 mm 4 mps 761 mmHg 51%
    09:00 +5°C° 0 mm 4 mps 761 mmHg 46%
    10:00 +6°C° 0 mm 4 mps 761 mmHg 40%
    11:00 +8°C° 0 mm 4 mps 761 mmHg 35%
    12:00 +8°C° 0 mm 4 mps 761 mmHg 33%
    13:00 +10°C° 0 mm 4 mps 761 mmHg 32%
    14:00 +10°C° 0 mm 4 mps 760 mmHg 31%
    15:00 +9°C° 0 mm 3 mps 760 mmHg 33%
    16:00 +8°C° 0 mm 3 mps 761 mmHg 36%
    17:00 +5°C° 0 mm 3 mps 761 mmHg 39%
    18:00 +5°C° 0 mm 3 mps 761 mmHg 41%
    19:00 +4°C° 0 mm 3 mps 761 mmHg 43%
    20:00 +3°C° 0 mm 3 mps 761 mmHg 44%
    21:00 +3°C° 0 mm 3 mps 762 mmHg 46%
    22:00 +3°C° 0 mm 3 mps 762 mmHg 48%
    23:00 +3°C° 0 mm 2 mps 762 mmHg 49%
    Show more